Epoch 2002 Nov. 22.0 TT = JDT 2452600.5 T 2002 Nov. 19.20060 TT MPC q 1.2429626 (2000.0) P Q z -0.0012510 Peri. 133.30668 -0.22321589 -0.93224973 +/-0.0000063 Node 33.74729 -0.97463758 +0.21824788 e 1.0015550 Incl. 149.16411 -0.01600815 -0.28857980 >From 473 observations 2002 Aug. 28-2003 Feb. 6, mean residual 0".67.
m1 = 7.6 + 5 logΔ + 33.0 log r [ , 0] ( 〜2002年11月19日) m1 = 9.3 + 5 logΔ + 10.0 log r [ 0,70] (2002年11月19日〜2003年 1月28日) m1 = 6.8 + 5 logΔ + 22.0 log r [70, ] (2003年 1月28日〜 )